Regional Weather Roundup
Issued by NWS

Home | Current Version | Previous Version | Text Only | Print | Product List | Glossary On
Versions: 1 2 3 4 5 6 7 8 9 10 11 12 13 14 15 16 17 18 19 20 21 22 23 24 25 26 27 28 29 30 31 32 33 34 35 36 37 38 39 40 41 42 43 44 45 46 47 48 49 50
000
ASUS43 KLSX 240310
RWRMO

WEATHER SUMMARY FOR MISSOURI
NATIONAL WEATHER SERVICE SPRINGFIELD MO
1000 PM CDT TUE MAY 23 2017

NOTE: "FAIR" INDICATES FEW OR NO CLOUDS BELOW 12,000 FEET WITH NO
       SIGNIFICANT WEATHER AND/OR OBSTRUCTIONS TO VISIBILITY.
       CURRENT SKY AND/OR WEATHER CONDITIONS ARE NOT AVAILABLE FOR
       CHILLICOTHE AND FARMINGTON.

MOZ001>031-035>038-043-044-053-054-240400-
...NORTHERN AND WESTERN MISSOURI...

CITY           SKY/WX    TMP DP  RH WIND       PRES   REMARKS
KANSAS CTY INT CLOUDY    54  47  77 NW6       29.80S
KANSAS C DTWN  MOCLDY    56  52  86 NW3       29.79S
LEE`S SUMMIT   CLOUDY    53  52  96 W6        29.79S
ST JOSEPH      CLOUDY    55  48  77 NW12      29.80S
CHILLICOTHE      N/A     54  46  74 CALM      29.78S
KIRKSVILLE     PTCLDY    51  45  79 NW5       29.74F

$$
MOZ066>068-077>081-088>096-101>105-240400-
...SOUTHWEST MISSOURI...

CITY           SKY/WX    TMP DP  RH WIND       PRES   REMARKS
SPRINGFIELD    CLOUDY    59  46  62 NW5       29.77R
JOPLIN         CLOUDY    58  49  72 NW7       29.80S
BRANSON        PTCLDY    57  50  77 CALM      29.78S

$$
MOZ032>034-039>042-045>050-055>058-069>072-240400-
...CENTRAL MISSOURI...

CITY           SKY/WX    TMP DP  RH WIND       PRES   REMARKS
COLUMBIA       CLEAR     57  48  72 NW12      29.74S
JEFFERSON CITY MOCLDY    60  52  74 W5        29.73S
SEDALIA        MOCLDY    58  50  75 NW6       29.77S
WHITEMAN AFB   DRIZZLE   56  52  85 W10       29.76S
WARRENSBURG    DRIZZLE   52  50  93 W6        29.78S
OSAGE BEACH    PTCLDY    55  49  80 NW3       29.76S

$$
MOZ051-052-059>065-240400-
...EAST CENTRAL MISSOURI...

CITY           SKY/WX    TMP DP  RH WIND       PRES   REMARKS
ST LOUIS INTL  CLOUDY    63  56  78 CALM      29.71S
SPIRIT OF STL  CLOUDY    59  58  96 S3        29.70S
ST CHARLES     CLOUDY    60  58  92 CALM      29.69F

$$
MOZ072>076-082>087-097>100-106>115-240400-
...SOUTH CENTRAL AND SOUTHEAST MISSOURI...

CITY           SKY/WX    TMP DP  RH WIND       PRES   REMARKS
CAPE GIRARDEAU CLOUDY    64  55  72 N14       29.69R
FARMINGTON     CLOUDY    59  54  83 NW5       29.72S
POPLAR BLUFF   CLOUDY    60  59  96 NW5       29.70S
WEST PLAINS    CLOUDY    58  52  80 NW5       29.76R

$$




USA.gov is the U.S. government's official web portal to all federal, state and local government web resources and services.